Weather History for KCMY - October, 2011

Change the Weather History Date:

Saturday, October 29, 2011

  Actual Average Record
Temperature  
Mean Temperature 34 °F -  
Max Temperature 52 °F 54 °F 77 °F (1950)
Min Temperature 17 °F 30 °F 13 °F (1952)
Degree Days  
Heating Degree Days 30    
Moisture  
Dew Point 23 °F    
Average Humidity 71    
Maximum Humidity 99    
Minimum Humidity 29    
Precipitation  
Precipitation 0.00 in - - ()
Sea Level Pressure  
Sea Level Pressure 30.05 in    
Wind  
Wind Speed 1 mph (WSW)    
Max Wind Speed 9 mph    
Max Gust Speed -    
Visibility 10 miles    
Events      
Averages and records for this station are not official NWS values.
T = Trace of Precipitation, MM = Missing Value Source: NWS Daily Summary

Daily Weather History Graph

Daily Weather History Graph

Search for Another Location

Airport or City:

Trip Planner

Search our weather history database for the weather conditions in past years. The results will help you decide how hot, cold, wet, or windy it might be!

Date:

Astronomy

Oct. 29, 2011 Rise Set
Actual Time 7:35 AM CDT 5:57 PM CDT
Civil Twilight 7:05 AM CDT 6:27 PM CDT
Nautical Twilight 6:31 AM CDT 7:01 PM CDT
Astronomical Twilight 5:57 AM CDT 7:34 PM CDT
Moon 11:03 AM CDT (10/29) 8:14 PM CDT (10/29)
Length of Visible Light 11h 22m
Length of Day
10h 22m
Waxing Crescent, 12% of the Moon is Illuminated
Oct 29
Waxing Crescent
Nov 2
First Quarter
Nov 10
Full
Nov 18
Last Quarter
Nov 25
New

Hourly Weather History & Observations

Time (CDT) Temp. Windchill Dew Point Humidity Pressure Visibility Wind Dir Wind Speed Gust Speed Precip Events Conditions
12:15 AM 24.4 °F - 23.2 °F 95% 30.01 in 10.0 mi Calm Calm - N/A   Clear
12:35 AM 24.6 °F - 23.9 °F 97% 30.01 in 10.0 mi Calm Calm - N/A   Clear
12:55 AM 23.9 °F - 23.5 °F 99% 30.01 in 10.0 mi Calm Calm - N/A   Clear
1:15 AM 22.8 °F - 22.1 °F 97% 30.01 in 10.0 mi Calm Calm - N/A   Clear
1:35 AM 23.2 °F - 22.1 °F 96% 30.01 in 10.0 mi Calm Calm - N/A   Clear
1:55 AM 22.3 °F - 21.4 °F 96% 30.01 in 10.0 mi Calm Calm - N/A   Clear
2:15 AM 22.5 °F - 21.6 °F 96% 30.02 in 10.0 mi Calm Calm - N/A   Mostly Cloudy
2:35 AM 23.0 °F - 21.9 °F 96% 30.02 in 10.0 mi Calm Calm - N/A   Overcast
3:15 AM 22.8 °F - 21.6 °F 95% 30.02 in 10.0 mi Calm Calm - N/A   Scattered Clouds
3:35 AM 22.8 °F - 21.7 °F 96% 30.02 in 10.0 mi Calm Calm - N/A   Mostly Cloudy
3:55 AM 23.0 °F - 21.9 °F 96% 30.02 in 10.0 mi Calm Calm - N/A   Mostly Cloudy
4:35 AM 22.3 °F - 21.2 °F 96% 30.02 in 10.0 mi Calm Calm - N/A   Clear
5:15 AM 21.0 °F - 20.1 °F 96% 30.03 in 10.0 mi Calm Calm - N/A   Clear
5:35 AM 20.5 °F - 19.4 °F 96% 30.03 in 10.0 mi Calm Calm - N/A   Clear
5:55 AM 20.1 °F - 18.9 °F 95% 30.04 in 10.0 mi Calm Calm - N/A   Clear
6:15 AM 19.8 °F - 18.3 °F 94% 30.04 in 10.0 mi Calm Calm - N/A   Clear
6:35 AM 19.4 °F - 18.3 °F 96% 30.05 in 10.0 mi Calm Calm - N/A   Clear
6:55 AM 19.2 °F - 18.1 °F 96% 30.05 in 10.0 mi Calm Calm - N/A   Clear
7:15 AM 18.1 °F - 16.9 °F 95% 30.05 in 10.0 mi Calm Calm - N/A   Clear
7:35 AM 17.8 °F - 16.5 °F 95% 30.06 in 10.0 mi Calm Calm - N/A   Clear
7:55 AM 17.4 °F - 16.3 °F 96% 30.06 in 10.0 mi Calm Calm - N/A   Clear
8:15 AM 18.5 °F - 17.2 °F 95% 30.07 in 10.0 mi Calm Calm - N/A   Clear
8:35 AM 21.2 °F - 19.4 °F 93% 30.07 in 10.0 mi Calm Calm - N/A   Clear
8:55 AM 23.5 °F - 22.1 °F 94% 30.08 in 10.0 mi Calm Calm - N/A   Clear
9:15 AM 26.6 °F - 25.3 °F 95% 30.08 in 10.0 mi Calm Calm - N/A   Clear
9:35 AM 29.1 °F - 27.0 °F 92% 30.08 in 10.0 mi Calm Calm - N/A   Clear
9:55 AM 32.4 °F - 29.1 °F 88% 30.08 in 10.0 mi Calm Calm - N/A   Clear
10:15 AM 35.6 °F - 29.7 °F 79% 30.08 in 10.0 mi Calm Calm - N/A   Clear
10:35 AM 38.5 °F - 30.0 °F 72% 30.08 in 10.0 mi Calm Calm - N/A   Clear
10:55 AM 40.8 °F 38.8 °F 29.5 °F 64% 30.08 in 10.0 mi West 3.5 mph - N/A   Clear
11:15 AM 42.8 °F - 29.3 °F 59% 30.09 in 10.0 mi Calm Calm - N/A   Clear
11:35 AM 44.4 °F - 29.3 °F 55% 30.09 in 10.0 mi Calm Calm - N/A   Clear
11:55 AM 46.2 °F - 29.8 °F 53% 30.09 in 10.0 mi Calm Calm - N/A   Clear
12:15 PM 47.3 °F - 28.2 °F 48% 30.09 in 10.0 mi West 3.5 mph - N/A   Clear
12:35 PM 48.2 °F - 27.9 °F 45% 30.08 in 10.0 mi Calm Calm - N/A   Clear
12:55 PM 49.3 °F - 27.9 °F 44% 30.08 in 10.0 mi SW 5.8 mph - N/A   Clear
1:15 PM 50.0 °F - 27.0 °F 41% 30.07 in 10.0 mi SW 9.2 mph - N/A   Clear
1:35 PM 50.5 °F - 25.2 °F 37% 30.06 in 10.0 mi West 6.9 mph - N/A   Clear
1:55 PM 51.1 °F - 24.1 °F 35% 30.05 in 10.0 mi West 8.1 mph - N/A   Clear
2:15 PM 51.4 °F - 23.0 °F 33% 30.05 in 10.0 mi WSW 8.1 mph - N/A   Clear
2:35 PM 51.4 °F - 22.8 °F 33% 30.04 in 10.0 mi Calm Calm - N/A   Clear
2:55 PM 51.8 °F - 22.3 °F 32% 30.03 in 10.0 mi SW 5.8 mph - N/A   Clear
3:15 PM 52.2 °F - 22.3 °F 31% 30.03 in 10.0 mi Calm Calm - N/A   Clear
3:35 PM 51.8 °F - 21.4 °F 30% 30.03 in 10.0 mi WSW 8.1 mph - N/A   Clear
3:55 PM 51.6 °F - 20.8 °F 30% 30.03 in 10.0 mi Calm Calm - N/A   Clear
4:15 PM 51.6 °F - 20.7 °F 30% 30.03 in 10.0 mi SW 5.8 mph - N/A   Clear
4:35 PM 51.3 °F - 20.1 °F 29% 30.03 in 10.0 mi Calm Calm - N/A   Clear
4:55 PM 50.5 °F - 19.8 °F 30% 30.03 in 10.0 mi WNW 3.5 mph - N/A   Clear
5:15 PM 49.8 °F - 20.5 °F 32% 30.03 in 10.0 mi Calm Calm - N/A   Clear
5:35 PM 48.0 °F - 21.2 °F 35% 30.03 in 10.0 mi Calm Calm - N/A   Clear
5:55 PM 43.7 °F - 23.7 °F 45% 30.03 in 10.0 mi Calm Calm - N/A   Clear
6:15 PM 40.5 °F - 24.6 °F 53% 30.04 in 10.0 mi Calm Calm - N/A   Clear
6:35 PM 37.4 °F 34.9 °F 25.0 °F 61% 30.05 in 10.0 mi ESE 3.5 mph - N/A   Clear
7:15 PM 33.8 °F 30.8 °F 24.3 °F 68% 30.05 in 10.0 mi ESE 3.5 mph - N/A   Clear
7:35 PM 34.7 °F - 24.1 °F 65% 30.04 in 10.0 mi Calm Calm - N/A   Clear
7:55 PM 32.5 °F - 23.7 °F 70% 30.04 in 10.0 mi Calm Calm - N/A   Clear
8:15 PM 30.2 °F - 23.4 °F 76% 30.04 in 10.0 mi Calm Calm - N/A   Clear
8:55 PM 29.1 °F - 23.0 °F 78% 30.04 in 10.0 mi Calm Calm - N/A   Clear
9:15 PM 28.4 °F - 22.8 °F 80% 30.04 in 10.0 mi Calm Calm - N/A   Clear
9:35 PM 27.9 °F - 22.8 °F 81% 30.04 in 10.0 mi Calm Calm - N/A   Clear
9:55 PM 28.0 °F - 23.5 °F 83% 30.04 in 10.0 mi Calm Calm - N/A   Clear
10:15 PM 28.9 °F - 24.8 °F 84% 30.03 in 10.0 mi Calm Calm - N/A   Scattered Clouds
10:35 PM 29.5 °F - 24.6 °F 82% 30.04 in 10.0 mi Calm Calm - N/A   Scattered Clouds
10:55 PM 30.2 °F - 24.8 °F 80% 30.04 in 10.0 mi Calm Calm - N/A   Clear
11:15 PM 29.8 °F - 24.3 °F 80% 30.04 in 10.0 mi Calm Calm - N/A   Scattered Clouds
11:35 PM 29.8 °F - 24.8 °F 81% 30.04 in 10.0 mi Calm Calm - N/A   Scattered Clouds
11:55 PM 29.5 °F - 24.6 °F 82% 30.03 in 10.0 mi Calm Calm - N/A   Scattered Clouds